Location: Camerons Lookout
(40.9833°S, 175.9333°E)
Time: 20:18:15
(UTC+00:00)

NOSS 3-3 (C) - Pass Details

Date: 14 January 2026
Orbit: 697 x 1516 km, 63.4° (Epoch: 11 January)

Event Time Altitude Azimuth Distance (km) Brightness Sun altitude
Rises 09:35:20 0° 215° (SW) 3,819 8.9 -16.3°
Reaches altitude 10° 09:38:12 10° 214° (SW) 2,734 7.7 -16.7°
Maximum altitude 09:44:28 84° 125° (SE) 854 3.7 -17.4°
Enters shadow 09:47:07 31° 39° (NE) 1,361 4.2 -17.7°
